Location: Treviso
(45.6669°N, 12.2430°E)
Time: 21:27:37
(UTC+01:00)

ISS - Pass Details

Date: 25 November 2023
Orbit: 415 x 417 km, 51.6° (Epoch: 06 December)

Event Time Altitude Azimuth Distance (km) Brightness Sun altitude
Rises 18:15:32 0° 284° (WNW) 2,360 1.2 -17.7°
Reaches altitude 10° 18:17:49 10° 297° (WNW) 1,498 -0.2 -18.1°
Maximum altitude 18:20:47 28° 359° (N) 820 -2.4 -18.6°
Enters shadow 18:20:55 28° 4° (N) 822 -2.5 -18.6°
